This is the latest recevied weather packets stored in our database for station/object W1RCP. If no packets are shown the sender has not sent any weather packets the latest 10 day(s).
| Time | Temp. | Humidity | Pressure | Rain* | Wind** | Luminosity | Snow |
|---|---|---|---|---|---|---|---|
| 1778102784 | 32.22° C | 41% | 1025.1 hPa | 0 mm | - | 450 W/m² | - |
| 1778102479 | 32.22° C | 42% | 1025 hPa | 0 mm | - | 469 W/m² | - |
| 1778102174 | 32.22° C | 42% | 1025.1 hPa | 0 mm | - | 484 W/m² | - |
| 1778101872 | 32.22° C | 41% | 1025.2 hPa | 0 mm | - | 499 W/m² | - |
| 1778101569 | 31.67° C | 41% | 1025.1 hPa | 0 mm | - | 519 W/m² | - |
| 1778101265 | 31.67° C | 41% | 1025.2 hPa | 0 mm | - | 538 W/m² | - |
| 1778100962 | 31.67° C | 40% | 1025.2 hPa | 0 mm | - | 551 W/m² | - |
| 1778100657 | 32.22° C | 40% | 1025.3 hPa | 0 mm | - | 568 W/m² | - |
| 1778100355 | 31.67° C | 41% | 1025 hPa | 0 mm | - | 583 W/m² | - |
| 1778100052 | 31.67° C | 41% | 1025.4 hPa | 0 mm | - | 597 W/m² | - |
| 1778099750 | 31.67° C | 40% | 1025.4 hPa | 0 mm | - | 616 W/m² | - |
| 1778099446 | 32.22° C | 40% | 1025.5 hPa | 0 mm | - | 622 W/m² | - |
| 1778099144 | 31.67° C | 40% | 1025.4 hPa | 0 mm | - | 642 W/m² | - |
| 1778098840 | 31.67° C | 41% | 1025.6 hPa | 0 mm | - | 665 W/m² | - |
| 1778098538 | 31.11° C | 40% | 1025.7 hPa | 0 mm | - | 680 W/m² | - |
| 1778098234 | 31.67° C | 40% | 1025.9 hPa | 0 mm | - | 708 W/m² | - |
| 1778097930 | 31.67° C | 41% | 1025.8 hPa | 0 mm | - | 771 W/m² | - |
| 1778097627 | 30.56° C | 44% | 1025.8 hPa | 0 mm | - | 595 W/m² | - |
| 1778097324 | 31.11° C | 42% | 1026 hPa | 0 mm | - | 209 W/m² | - |
| 1778097020 | 31.11° C | 41% | 1026.1 hPa | 0 mm | - | 255 W/m² | - |
| 1778096718 | 31.11° C | 40% | 1026.2 hPa | 0 mm | - | 610 W/m² | - |
| 1778096414 | 31.67° C | 41% | 1026 hPa | 0 mm | - | 322 W/m² | - |
| 1778096112 | 31.67° C | 39% | 1026.1 hPa | 0 mm | - | 826 W/m² | - |
| 1778095809 | 31.67° C | 39% | 1026.1 hPa | 0 mm | - | 777 W/m² | - |
| 1778095506 | 31.11° C | 39% | 1026.1 hPa | 0 mm | - | 799 W/m² | - |
* Rain latest hour (hover to see other rain measurements)
** Current wind speed in m/s (hover to see current wind gust speed)